Regional Weather Roundup
Issued by NWS

Home | Current Version | Previous Version | Graphics & Text | Print | Product List | Glossary Off
Versions: 1 2 3 4 5 6 7 8 9 10 11 12 13 14 15 16 17 18 19 20 21 22 23 24 25 26 27 28 29 30 31 32 33 34 35 36 37 38 39 40 41 42 43 44 45 46 47 48 49 50

000
ASUS43 KMKX 221400
RWRWI

WISCONSIN REGIONAL WEATHER ROUNDUP
NATIONAL WEATHER SERVICE MILWAUKEE/SULLIVAN WI
900 AM CDT TUE AUG 22 2017

NOTE: "FAIR" INDICATES FEW OR NO CLOUDS BELOW 12,000 FEET WITH NO
SIGNIFICANT WEATHER AND/OR OBSTRUCTIONS TO VISIBILITY.

WIZ001-002-006>008-014>016-023>028-221500-
NORTHWEST WISCONSIN

CITY           SKY/WX    TMP DP  RH WIND       PRES   REMARKS
SUPERIOR ARPT    N/A     57  54  87 W9        29.95R
ASHLAND        PTSUNNY   60  54  80 NW9G17    29.91R
HAYWARD        MOSUNNY   59  51  75 N8        29.95R
SIREN          SUNNY     59  53  80 NW13      29.98S
CUMBERLAND     SUNNY     57  50  77 NW10G20   29.97R
RICE LAKE      SUNNY     60  53  77 NW9G17    29.98R
CHETEK         PTSUNNY   62  55  78 NW9G16    29.96R
LADYSMITH      PTSUNNY   60  55  83 NW13G21   29.95R
EAU CLAIRE     NOT AVBL
MENOMONIE      MOSUNNY   62  56  80 NW12G20   29.97R
NEW RICHMOND   SUNNY     61  53  75 N10       30.00R
OSCEOLA        SUNNY     61  55  78 NW7       30.02S
$$

WIZ003>005-009-010-017-018-221500-
NORTH CENTRAL WISCONSIN

CITY           SKY/WX    TMP DP  RH WIND       PRES   REMARKS
MANITOWISH WTR CLOUDY    56  56 100 NW10      29.88S
ARBOR VITAE    PTSUNNY   59  54  83 NW14G22   29.87S
WOODRUFF       PTSUNNY   59  54  83 NW14G22   29.87S
RHINELANDER    MOSUNNY   60  53  77 NW10G20   29.88R
EAGLE RIVER    PTSUNNY   58  51  78 NW10G22   29.85F
LAND O LAKES   PTSUNNY   58  53  85 NW7G18    29.87R
PHILLIPS       CLOUDY    57  54  89 NW5       29.90S
TOMAHAWK         N/A     58  53  82 W10       29.89S
MEDFORD        MOSUNNY   59  54  83 NW10G16   29.90S
MERRILL        PTSUNNY   61  54  77 NW12G18   29.89R
$$

WIZ029-030-035-036-043>047-221500-
CENTRAL WISCONSIN

CITY           SKY/WX    TMP DP  RH WIND       PRES   REMARKS
WAUSAU         SUNNY     63  53  70 NW18G25   29.87R
MOSINEE        NOT AVBL
MARSHFIELD     MOSUNNY   64  54  69 NW12      29.90R
STEVENS POINT  MOSUNNY   62  55  77 NW10G16   29.88R
WAUPACA        MOSUNNY   69  56  63 NW15G21   29.85R
WAUTOMA        MOSUNNY   68  57  68 N15G21    29.87R
WISC RAPIDS    SUNNY     65  55  70 N16G24    29.90R
CAMP DOUGLAS   NOT AVBL
$$

WIZ011>013-019>022-031-037>040-048>050-221500-
NORTHEAST WISCONSIN

CITY           SKY/WX    TMP DP  RH WIND       PRES   REMARKS
ANTIGO         PTSUNNY   60  54  81 NW8       29.86S
SHAWANO        MOSUNNY   68  55  63 NW9G18    29.83R
OCONTO         CLOUDY    65  54  67 N13G23    29.80R
STURGEON BAY   PTSUNNY   65  56  72 NW17      29.79R
GREEN BAY      CLOUDY    66  59  78 NW21G29   29.81R
MANITOWOC      NOT AVBL
APPLETON       PTSUNNY   66  59  77 NW16G25   29.81R
CLINTONVILLE   CLOUDY    64  54  68 NW15G21   29.84R
OSHKOSH        PTSUNNY   70  63  78 W12       29.82R
$$

WIZ032>034-041-042-053>061-221500-
SOUTHWEST WISCONSIN

CITY           SKY/WX    TMP DP  RH WIND       PRES   REMARKS
LA CROSSE      MOSUNNY   69  58  67 NW14      29.95R
SPARTA         PTSUNNY   64  58  81 NW13      29.93R
VIROQUA        CLOUDY    64  61  89 NW14G22   29.94R
BOSCOBEL       MOSUNNY   69  61  75 NW7       29.93R
PRAIRIE DU CHI CLOUDY    66  60  79 NW8       29.95R
PLATTEVILLE    CLOUDY    66  66 100 W8        29.95R
$$

WIZ056-057-062-063-064-067-068-221500-
SOUTH CENTRAL WISCONSIN

CITY           SKY/WX    TMP DP  RH WIND       PRES   REMARKS
REEDSBURG      CLOUDY    66  63  88 NW7G16    29.89R
BARABOO/DELLS  CLOUDY    67  59  76 NW12      29.89R
LONE ROCK      CLOUDY    68  64  87 W10       29.90R
MINERAL POINT  CLOUDY    68  64  88 W7        29.93R
MADISON        CLOUDY    68  63  84 W9        29.88R
MIDDLETON      CLOUDY    68  65  90 W9        29.90R
WATERTOWN      CLOUDY    67  65  93 W10       29.86R
MONROE         CLOUDY    64  61  88 W10G18    29.91R
JANESVILLE     PTSUNNY   70  66  88 W13       29.89R
$$

WIZ051-052-058>065-066-070>072-221500-
SOUTHEAST WISCONSIN

CITY           SKY/WX    TMP DP  RH WIND       PRES   REMARKS
MILWAUKEE      PTSUNNY   71  63  75 W15       29.84R
WAUKESHA       CLOUDY    64  61  88 W13G18    29.86R
MILWAUKEE/TIMM PTSUNNY   68  59  73 W12G21    29.84R
RACINE         CLOUDY    70  64  81 W13       29.86R
KENOSHA        CLOUDY    69  63  81 W15G22    29.86R
FOND DU LAC    PTSUNNY   70  61  73 W15       29.83R
SHEBOYGAN      MOSUNNY   70  65  84 W14       29.81R
WEST BEND      CLOUDY    66  63  88 W12G17    29.83R
JUNEAU         CLOUDY    67  62  86 W9G17     29.86R
$$

LSZ147-162-221500-
LAKE SUPERIOR

STATION/POSITION TIME  TEMP    WIND        PRES    WAVE
                       AIR SEA DIR/SP/G            HT/PER
                 (UTC) (F)     (DEG/KT/KT) (MB)    (FT/S)
W MID LAKE BUOY  1250   60 60  280/ 14/ 17 1009.6R   1/ 3
DEVILS ISLAND    1300   60     290/ 21/ 23 1011.7R
PORT WING        1140   62     310/ 16/ 21 1012.2
SAXON HARBOR     1340   62     300/ 14/ 18 1011.9R
$$

LMZ867-665-643>646-221500-
LAKE MICHIGAN

STATION/POSITION TIME  TEMP    WIND        PRES    WAVE
                       AIR SEA DIR/SP/G            HT/PER
                 (UTC) (F)     (DEG/KT/KT) (MB)    (FT/S)
S GREEN BAY BUOY 1330   67 71  310/ 23/ 27 1008.7R
N MID LAKE BUOY  1250   63 68  320/ 27/ 31 1005.7R   3/ 4
NORTHPORT PIER   1315   65     320/ 23/ 27 1007.5R
KEWAUNEE LAKESHO 1330   70     300/  9/ 17 1007.1R
SHEBOYGAN LAKESH 1300   68     260/ 17/ 19 1008.2R
PORT WASHINGTON  1330   70     290/ 12/ 16 1010.2S
ATWATER BUOY     1209   69 66  260/ 14/ 19 1009.6R
MILWAUKEE LAKESH 1330   70     280/ 15/ 17   N/A
S MID LAKE BUOY  1250   72 71  290/ 17/ 19 1009.4R   3/ 6
KENOSHA   LAKESH 1300   71     250/  9/ 19 1010.5
$$

TC  - TEMPERATURE IN CELSIUS
VSB - VISIBILITY IN STATUTE MILES
WCI - WIND CHILL INDEX
HX  - HEAT INDEX




USA.gov is the U.S. government's official web portal to all federal, state and local government web resources and services.